When you browse on this site, cookies collect data to enhance your experience and personalize the content and advertising you see.
Visit our Privacy Policy to learn more. By continuing to use the site, you agree to this use of cookies and data.
  • In Hungary
  • List of Countries
  • For 7 days
  • Water Temperature
  • Satellite Maps
  • Weather Map
  • News
  • Weather Widgets
  • user-avatar
    Login

    Hourly Weather Santo Antonio da Platina

    Today, 19 November, Monday

    Time Temperature Precipitation Wind Pressure Humidity
    00:00 +23°C° 0.3 mm 2 mps 714 mmHg 96%
    01:00 +23°C° 0.3 mm 2 mps 714 mmHg 96%
    02:00 +23°C° 0.3 mm 2 mps 714 mmHg 96%
    03:00 +23°C° 0.3 mm 2 mps 714 mmHg 96%
    04:00 +22°C° 1.3 mm 3 mps 714 mmHg 95%
    05:00 +21°C° 1.3 mm 3 mps 714 mmHg 95%
    06:00 +21°C° 1.3 mm 4 mps 714 mmHg 94%
    07:00 +21°C° 0.3 mm 4 mps 715 mmHg 93%
    08:00 +20°C° 0.3 mm 4 mps 715 mmHg 92%
    09:00 +20°C° 0.3 mm 4 mps 716 mmHg 91%
    10:00 +20°C° 0.1 mm 5 mps 716 mmHg 89%
    11:00 +21°C° 0.1 mm 5 mps 716 mmHg 86%
    12:00 +21°C° 0.1 mm 5 mps 716 mmHg 84%
    13:00 +21°C° 0 mm 5 mps 716 mmHg 82%
    14:00 +21°C° 0 mm 5 mps 716 mmHg 80%
    15:00 +21°C° 0 mm 5 mps 716 mmHg 77%
    16:00 +21°C° 0 mm 5 mps 715 mmHg 79%
    17:00 +20°C° 0 mm 5 mps 715 mmHg 80%
    18:00 +19°C° 0 mm 5 mps 715 mmHg 81%
    19:00 +19°C° 0 mm 5 mps 716 mmHg 81%
    20:00 +17°C° 0 mm 5 mps 716 mmHg 82%
    21:00 +17°C° 0 mm 5 mps 717 mmHg 83%
    22:00 +17°C° 0 mm 5 mps 717 mmHg 83%
    23:00 +16°C° 0 mm 5 mps 717 mmHg 83%

    Tomorrow, 20 November, Tuesday

    Time Temperature Precipitation Wind Pressure Humidity
    00:00 +16°C° 0 mm 5 mps 718 mmHg 84%
    01:00 +17°C° 0 mm 4 mps 717 mmHg 85%
    02:00 +17°C° 0 mm 4 mps 717 mmHg 86%
    03:00 +15°C° 0 mm 4 mps 716 mmHg 87%
    04:00 +15°C° 0 mm 4 mps 716 mmHg 87%
    05:00 +15°C° 0 mm 4 mps 717 mmHg 87%
    06:00 +15°C° 0 mm 4 mps 717 mmHg 88%
    07:00 +17°C° 0 mm 4 mps 717 mmHg 82%
    08:00 +19°C° 0 mm 5 mps 718 mmHg 76%
    09:00 +21°C° 0 mm 5 mps 718 mmHg 70%
    10:00 +23°C° 0 mm 5 mps 718 mmHg 66%
    11:00 +25°C° 0 mm 5 mps 718 mmHg 62%
    12:00 +27°C° 0 mm 5 mps 718 mmHg 58%
    13:00 +27°C° 0 mm 5 mps 717 mmHg 57%
    14:00 +28°C° 0 mm 5 mps 717 mmHg 56%
    15:00 +29°C° 0 mm 5 mps 716 mmHg 55%
    16:00 +28°C° 0 mm 4 mps 716 mmHg 59%
    17:00 +26°C° 0 mm 4 mps 716 mmHg 63%
    18:00 +25°C° 0 mm 4 mps 716 mmHg 67%
    19:00 +23°C° 0 mm 4 mps 716 mmHg 69%
    20:00 +21°C° 0 mm 5 mps 717 mmHg 70%
    21:00 +19°C° 0 mm 5 mps 717 mmHg 72%
    22:00 +19°C° 0 mm 5 mps 718 mmHg 75%
    23:00 +17°C° 0 mm 5 mps 718 mmHg 77%

    Day after tomorrow, 21 November, Wednesday

    Time Temperature Precipitation Wind Pressure Humidity
    00:00 +16°C° 0 mm 5 mps 718 mmHg 80%
    01:00 +17°C° 0 mm 4 mps 718 mmHg 81%
    02:00 +15°C° 0 mm 4 mps 717 mmHg 82%
    03:00 +15°C° 0 mm 4 mps 717 mmHg 84%
    04:00 +17°C° 0 mm 4 mps 717 mmHg 84%
    05:00 +17°C° 0 mm 4 mps 717 mmHg 85%
    06:00 +17°C° 0 mm 4 mps 717 mmHg 86%
    07:00 +19°C° 0 mm 4 mps 718 mmHg 81%
    08:00 +21°C° 0 mm 5 mps 718 mmHg 76%
    09:00 +23°C° 0 mm 5 mps 719 mmHg 71%
    10:00 +25°C° 0 mm 4 mps 719 mmHg 70%
    11:00 +26°C° 0 mm 4 mps 718 mmHg 69%
    12:00 +26°C° 0 mm 4 mps 718 mmHg 68%
    13:00 +26°C° 0.1 mm 4 mps 718 mmHg 69%
    14:00 +26°C° 0.1 mm 4 mps 717 mmHg 70%
    15:00 +26°C° 0.1 mm 4 mps 717 mmHg 70%
    16:00 +26°C° 0 mm 4 mps 716 mmHg 72%
    17:00 +26°C° 0 mm 4 mps 716 mmHg 74%
    18:00 +25°C° 0 mm 4 mps 716 mmHg 76%
    19:00 +23°C° 0 mm 4 mps 716 mmHg 79%
    20:00 +22°C° 0 mm 3 mps 717 mmHg 82%
    21:00 +21°C° 0 mm 3 mps 717 mmHg 85%
    22:00 +21°C° 0 mm 3 mps 717 mmHg 86%
    23:00 +20°C° 0 mm 3 mps 717 mmHg 87%

    22 November, Thursday

    Time Temperature Precipitation Wind Pressure Humidity
    00:00 +20°C° 0 mm 3 mps 717 mmHg 89%
    01:00 +20°C° 0 mm 3 mps 717 mmHg 88%
    02:00 +20°C° 0 mm 3 mps 716 mmHg 88%
    03:00 +20°C° 0 mm 3 mps 716 mmHg 88%
    04:00 +20°C° 0 mm 3 mps 716 mmHg 89%
    05:00 +20°C° 0 mm 3 mps 716 mmHg 89%
    06:00 +20°C° 0 mm 3 mps 716 mmHg 90%
    07:00 +21°C° 0 mm 3 mps 717 mmHg 86%
    08:00 +22°C° 0 mm 3 mps 717 mmHg 83%
    09:00 +24°C° 0 mm 3 mps 718 mmHg 79%
    10:00 +25°C° 0.1 mm 3 mps 717 mmHg 75%
    11:00 +27°C° 0.1 mm 3 mps 717 mmHg 70%
    12:00 +28°C° 0.1 mm 3 mps 717 mmHg 66%
    13:00 +28°C° 0.4 mm 2 mps 716 mmHg 64%
    14:00 +29°C° 0.4 mm 2 mps 715 mmHg 63%
    15:00 +30°C° 0.4 mm 2 mps 715 mmHg 61%
    16:00 +29°C° 0.2 mm 2 mps 714 mmHg 65%
    17:00 +28°C° 0.2 mm 2 mps 714 mmHg 68%
    18:00 +28°C° 0.2 mm 1 mps 714 mmHg 72%
    19:00 +26°C° 0.1 mm 1 mps 714 mmHg 76%
    20:00 +25°C° 0.1 mm 1 mps 715 mmHg 80%
    21:00 +24°C° 0.1 mm 1 mps 715 mmHg 84%
    22:00 +23°C° 0.1 mm 2 mps 715 mmHg 87%
    23:00 +23°C° 0.1 mm 2 mps 715 mmHg 89%

    23 November, Friday

    Time Temperature Precipitation Wind Pressure Humidity
    00:00 +21°C° 0.1 mm 2 mps 715 mmHg 91%
    01:00 +21°C° 0 mm 2 mps 715 mmHg 92%
    02:00 +21°C° 0 mm 2 mps 714 mmHg 93%
    03:00 +20°C° 0 mm 2 mps 714 mmHg 94%
    04:00 +20°C° 0 mm 2 mps 714 mmHg 94%
    05:00 +21°C° 0 mm 1 mps 715 mmHg 94%
    06:00 +21°C° 0 mm 1 mps 715 mmHg 93%
    07:00 +23°C° 0.1 mm 2 mps 715 mmHg 85%
    08:00 +26°C° 0.1 mm 2 mps 716 mmHg 76%
    09:00 +28°C° 0.1 mm 3 mps 716 mmHg 68%
    10:00 +29°C° 0.4 mm 3 mps 716 mmHg 63%
    11:00 +30°C° 0.4 mm 3 mps 715 mmHg 59%
    12:00 +31°C° 0.4 mm 3 mps 715 mmHg 55%
    13:00 +31°C° 0.4 mm 3 mps 714 mmHg 55%
    14:00 +31°C° 0.4 mm 2 mps 714 mmHg 56%
    15:00 +31°C° 0.4 mm 2 mps 713 mmHg 56%
    16:00 +30°C° 0.7 mm 2 mps 713 mmHg 63%
    17:00 +29°C° 0.7 mm 2 mps 713 mmHg 69%
    18:00 +28°C° 0.7 mm 1 mps 713 mmHg 76%
    19:00 +27°C° 0.1 mm 1 mps 713 mmHg 79%
    20:00 +25°C° 0.1 mm 1 mps 714 mmHg 83%
    21:00 +24°C° 0.1 mm 1 mps 714 mmHg 87%
    22:00 +24°C° 0.1 mm 1 mps 714 mmHg 87%
    23:00 +24°C° 0.1 mm 2 mps 714 mmHg 88%

    24 November, Saturday

    Time Temperature Precipitation Wind Pressure Humidity
    00:00 +23°C° 0.1 mm 2 mps 714 mmHg 89%
    01:00 +23°C° 0.4 mm 2 mps 713 mmHg 90%
    02:00 +23°C° 0.4 mm 2 mps 713 mmHg 91%
    03:00 +23°C° 0.4 mm 2 mps 713 mmHg 92%
    04:00 +23°C° 2.1 mm 2 mps 713 mmHg 92%
    05:00 +23°C° 2.1 mm 2 mps 713 mmHg 92%
    06:00 +23°C° 2.1 mm 2 mps 714 mmHg 92%
    07:00 +22°C° 1.8 mm 3 mps 714 mmHg 91%
    08:00 +24°C° 1.8 mm 3 mps 714 mmHg 90%
    09:00 +24°C° 1.8 mm 3 mps 714 mmHg 88%
    10:00 +25°C° 1.3 mm 3 mps 714 mmHg 88%
    11:00 +25°C° 1.3 mm 2 mps 714 mmHg 88%
    12:00 +25°C° 1.3 mm 2 mps 714 mmHg 88%
    13:00 +25°C° 1.8 mm 2 mps 714 mmHg 88%
    14:00 +25°C° 1.8 mm 2 mps 713 mmHg 89%
    15:00 +24°C° 1.8 mm 2 mps 713 mmHg 90%
    16:00 +24°C° 2.3 mm 2 mps 713 mmHg 91%
    17:00 +23°C° 2.3 mm 2 mps 713 mmHg 93%
    18:00 +23°C° 2.3 mm 2 mps 712 mmHg 94%
    19:00 +23°C° 1.7 mm 2 mps 713 mmHg 95%
    20:00 +22°C° 1.7 mm 3 mps 713 mmHg 95%
    21:00 +21°C° 1.7 mm 3 mps 713 mmHg 95%
    22:00 +21°C° 2.2 mm 3 mps 713 mmHg 96%
    23:00 +21°C° 2.2 mm 3 mps 713 mmHg 96%
    Show more